RH
55 55 54 47 45 48 50 60 86 94 79 90 89 78 90 98 99 89 100 99 100 98 94 95 88 82 71 76 73 74 70 84 74 58 53 48 43 52
58 56 51 47 48 50 55 63 72 95 99 96 94 90 87 89 98 98 100 99 100 95 94 95 88 76 67 80 78 78 83 86 76 54 43 45 44 47
55 54 51 50 50 53 60 69 80 93 98 100 99 91 93 93 97 97 100 100 100 100 96 97 90 73 65 63 57 64 77 88 77 93 78 54 49 53
52 52 52 51 53 60 70 77 83 96 98 98 100 99 99 100 99 96 99 100 100 99 99 97 90 73 61 53 48 52 66 87 90 98 95 83 74 65
53 53 53 53 59 66 69 72 78 91 100 99 99 96 96 95 96 99 100 100 99 99 99 97 88 65 29 17 16 23 64 84 89 99 99 92 97 88
55 56 58 58 66 73 73 77 97 99 99 99 100 98 97 98 100 100 100 99 99 99 98 96 78 30 14 12 11 12 32 77 87 95 100 100 99 99
56 58 61 65 72 82 83 89 99 98 98 100 99 99 99 100 99 99 100 100 99 95 90 64 27 17 15 14 12 11 11 38 80 85 100 100 100 100
56 59 68 79 88 99 97 97 95 94 93 95 95 96 99 99 99 99 99 92 82 53 29 19 18 16 16 15 12 10 8 9 40 79 86 99 100 100
57 61 74 95 99 99 99 89 81 87 90 92 94 97 100 99 99 97 75 54 44 25 18 15 12 14 16 15 13 12 10 8 9 28 70 79 83 93
70 76 90 98 98 99 91 34 14 14 32 64 83 93 86 69 59 52 39 27 23 16 15 15 15 16 15 16 19 18 17 15 9 7 9 36 58 71
72 83 98 99 99 100 60 17 20 20 16 14 13 12 14 16 20 21 19 19 18 15 14 16 16 17 18 20 23 23 25 23 23 20 13 9 7 8
77 88 98 98 99 95 29 23 23 18 16 16 13 13 13 12 12 12 13 14 14 12 12 16 16 20 24 26 27 28 30 28 29 28 25 24 22 22
83 96 100 97 88 42 18 23 22 16 18 20 21 18 15 15 16 14 15 15 13 12 14 16 19 19 21 24 26 27 30 32 32 31 29 30 29 27
87 93 89 50 24 17 19 19 18 15 20 23 23 21 21 22 23 23 21 19 17 16 17 24 30 28 18 16 17 18 24 28 31 31 29 28 29 28
95 86 65 20 14 20 21 21 20 15 16 23 26 22 24 24 24 24 23 22 20 28 34 42 55 49 32 20 17 16 17 20 22 24 25 26 26 25
99 95 58 19 18 21 25 26 24 20 18 19 22 20 22 25 24 22 25 26 28 34 41 38 30 26 24 23 23 23 24 24 25 27 27 29 30 31
100 100 72 24 19 23 27 27 25 25 19 20 22 22 21 24 25 24 25 28 30 37 44 35 35 34 32 32 32 31 31 31 32 32 33 34 35 36
99 99 98 54 21 20 22 23 23 23 21 23 23 22 22 23 25 26 26 28 30 34 42 39 40 40 40 45 47 38 38 40 40 41 42 42 41 44
98 99 100 95 43 25 22 20 17 18 22 24 23 23 23 25 25 24 25 27 28 30 36 39 42 38 41 55 65 64 55 46 48 68 63 56 49 49
100 100 99 100 72 36 32 29 29 27 23 23 24 22 21 20 22 23 23 23 25 27 29 28 31 34 39 71 85 82 80 66 77 72 77 82 78 72
100 100 100 98 96 60 32 28 26 25 25 24 23 23 21 20 19 20 23 26 27 26 25 43 31 39 59 85 88 81 78 72 66 73 79 78 80 77
100 100 99 98 98 95 39 27 26 28 27 26 26 27 26 26 25 25 25 28 30 35 54 44 32 47 88 92 88 83 70 60 63 81 86 85 88 88
100 100 100 99 99 99 89 34 36 33 33 33 35 36 36 37 52 81 73 36 40 69 75 51 42 62 95 93 92 87 81 83 88 86 82 83 86 83
Wind_Speed
15 15 17 16 17 18 18 17 16 10 10 11 12 13 14 14 16 16 18 17 17 16 17 20 20 19 17 12 10 13 13 11 13 13 14 17 22 26
16 16 16 17 17 18 18 18 19 18 14 13 15 14 15 17 16 16 17 18 18 17 17 23 18 17 15 11 9 9 9 10 13 13 12 14 18 22
16 15 17 17 18 19 18 18 19 19 21 18 19 16 17 18 17 19 19 18 18 15 16 22 17 15 13 11 11 9 9 9 10 12 10 8 13 19
14 15 17 17 18 18 18 18 18 17 19 17 17 17 16 16 17 17 18 16 14 15 18 19 16 13 13 12 11 9 9 7 3 6 9 4 8 13
15 17 18 18 18 19 20 19 18 18 17 19 20 18 18 18 19 18 18 17 16 17 17 16 16 13 13 11 10 9 8 7 4 1 1 3 6 8
17 17 18 18 18 19 20 18 17 15 15 17 17 16 16 17 17 18 17 17 16 17 16 15 14 14 13 11 10 9 8 9 9 5 8 13 13 16
16 18 18 18 18 16 14 12 12 12 13 13 14 13 14 13 13 13 14 15 17 14 14 14 13 11 11 10 10 8 8 9 12 13 7 10 12 11
15 17 17 15 14 11 10 11 11 11 12 12 13 13 13 13 13 13 14 14 13 11 13 12 11 10 9 8 8 6 6 9 12 15 14 10 8 9
15 15 15 13 11 12 11 10 10 11 10 10 11 12 13 12 14 13 13 13 14 11 9 9 9 9 8 7 5 4 3 6 9 13 16 16 14 12
11 12 12 11 12 12 10 10 10 9 11 12 13 14 13 13 12 12 12 12 11 10 9 7 6 7 7 6 5 4 3 3 5 8 11 14 15 16
11 11 12 12 13 12 11 11 10 10 10 10 9 10 11 11 10 10 10 10 8 7 7 5 5 6 6 6 7 5 5 5 5 4 5 7 10 12
12 12 14 14 14 13 12 11 10 11 9 7 8 9 8 8 9 11 9 7 7 5 4 5 4 3 3 5 7 7 7 6 6 5 5 6 7 7
13 13 14 14 13 13 12 11 11 11 11 10 8 7 8 8 9 8 6 6 7 6 4 4 2 3 5 5 6 6 7 8 9 7 6 7 8 8
14 14 13 13 13 13 13 13 14 13 13 12 11 10 10 9 8 8 8 8 7 6 5 3 3 5 6 7 8 7 8 9 10 11 11 10 9 10
15 15 14 14 15 16 15 14 14 13 15 14 12 12 12 11 11 11 9 8 8 8 6 6 6 6 7 9 9 9 10 9 10 11 11 11 11 11
17 18 17 17 17 17 17 16 15 14 14 14 14 15 14 12 12 11 11 11 11 9 8 8 8 8 8 8 10 10 10 9 8 8 9 10 11 11
17 20 20 20 20 20 20 19 17 16 16 15 15 14 13 14 14 13 13 13 13 12 10 9 9 9 10 10 10 11 12 13 13 14 15 15 15 16
23 24 24 22 22 21 21 21 20 18 16 15 15 15 15 15 15 15 15 15 15 15 14 13 13 12 12 11 12 12 12 11 13 13 14 16 16 16
25 25 26 25 24 23 22 21 20 18 16 17 17 17 17 17 17 17 17 17 17 17 17 17 15 15 15 15 17 15 15 14 13 13 15 17 19 17
25 25 25 25 26 25 23 22 21 20 20 21 20 19 19 19 19 19 19 19 18 18 18 18 18 18 17 18 20 21 15 15 16 17 18 19 21 23
24 23 23 24 25 25 23 23 22 22 22 22 22 21 20 21 21 20 20 20 20 20 21 19 17 17 19 22 22 20 16 15 16 17 19 20 21 22
24 23 22 22 22 25 23 23 23 23 23 23 23 21 21 22 21 21 22 23 23 22 21 20 20 20 23 22 21 19 18 18 17 18 19 20 19 18
25 24 23 21 23 23 26 25 25 24 24 24 23 23 23 24 23 24 24 25 25 26 24 23 23 23 22 22 21 21 20 21 20 20 19 17 19 20
Wind_Direction
250 266 274 280 281 279 276 271 261 268 276 262 279 281 277 267 262 268 275 277 287 285 290 304 305 302 304 291 285 268 270 285 293 288 272 250 232 222
261 263 271 276 275 273 269 265 261 256 256 263 269 277 280 277 273 272 279 280 268 278 291 307 295 293 301 301 288 279 274 286 307 300 275 253 232 220
260 267 271 274 270 269 265 261 258 255 258 265 275 277 270 269 271 278 277 269 271 279 301 308 291 292 297 298 292 282 270 277 314 328 315 256 217 211
267 268 268 269 270 266 262 258 255 253 259 266 268 267 269 269 272 272 272 265 273 289 301 293 282 290 293 293 287 280 267 265 307 351 336 252 203 217
269 268 267 266 261 261 266 264 263 260 253 253 262 267 270 272 271 268 266 266 282 289 288 277 288 295 294 294 290 279 253 241 213 36 69 191 166 169
270 268 268 268 261 263 269 270 268 261 254 256 260 267 268 268 264 262 262 269 276 281 272 271 282 294 297 296 289 278 250 225 204 215 135 137 178 162
270 272 271 267 261 262 269 264 256 254 256 255 257 258 260 261 263 264 261 265 272 263 263 271 278 283 288 292 291 281 255 230 213 215 207 153 177 213
273 274 269 265 271 267 254 251 249 250 248 253 251 252 255 258 257 257 257 260 258 260 262 271 275 278 281 283 287 284 254 228 221 218 224 211 181 192
270 265 262 260 262 262 243 239 244 244 247 247 242 243 246 250 252 252 252 248 249 255 266 269 270 271 272 275 287 272 249 230 224 227 225 227 228 224
273 262 258 255 254 249 247 248 246 246 242 240 239 239 244 248 247 246 242 245 250 250 245 256 262 264 263 263 260 261 266 264 245 234 230 231 232 236
279 273 258 252 251 244 242 245 248 247 245 241 242 235 233 232 231 231 231 234 241 245 236 237 251 253 261 268 270 269 249 233 229 234 218 215 224 229
272 268 251 245 242 235 236 237 241 241 238 234 226 222 219 229 232 228 220 222 231 238 227 226 249 246 275 271 266 268 266 251 229 220 210 212 216 216
256 256 245 238 233 234 229 230 233 233 230 224 220 216 213 213 214 212 212 212 222 228 209 197 214 234 256 283 283 275 263 261 255 246 244 238 233 230
250 243 241 237 236 236 231 230 232 231 229 226 225 225 226 222 220 223 211 211 215 216 208 218 258 269 268 273 277 278 271 262 258 263 266 259 249 249
248 247 236 235 236 235 235 230 233 229 226 224 225 229 228 226 224 222 222 219 217 219 232 251 261 264 271 274 277 281 283 274 266 263 262 260 258 257
241 243 239 236 233 235 235 231 232 227 226 223 225 228 228 230 231 231 232 231 229 235 257 260 265 271 269 270 276 277 273 264 270 268 264 265 265 263
245 238 232 231 231 231 231 232 230 226 226 225 227 230 231 234 236 236 237 237 238 244 259 262 267 270 274 277 277 275 271 272 272 273 274 274 272 270
242 240 236 233 234 233 232 231 230 228 229 232 234 236 237 239 242 240 240 242 243 246 255 257 262 268 274 286 285 279 274 271 272 274 276 277 275 272
241 242 241 236 236 235 234 234 234 232 230 233 236 237 238 240 243 244 244 246 247 250 254 258 262 263 267 282 290 278 276 270 262 268 274 277 278 275
240 244 245 242 233 238 238 238 238 234 234 238 240 240 241 243 245 247 248 250 253 253 255 259 264 262 262 276 284 287 274 263 268 272 278 279 279 279
245 248 250 244 239 237 240 240 239 237 237 240 242 242 244 244 247 250 251 252 252 253 255 266 268 257 264 281 280 286 278 264 262 271 278 279 281 279
247 252 254 251 246 234 238 238 238 237 237 239 243 244 245 246 248 250 252 251 252 257 264 260 258 258 274 275 277 276 274 275 272 275 271 272 275 272
252 252 254 256 252 243 235 235 235 237 239 241 243 246 246 248 251 258 253 250 251 257 257 254 254 261 269 271 272 272 272 276 278 275 276 273 273 274